This demonstration page uses our WeatherBlox Daily Observations layout. Learn more.

Left ArrowRight Arrow

38.89511, -77.03637

Hourly Observations for June 18, 2022

Temp ( °F °C ) Dew Point ( °F °C ) Humidity (%) Winds ( mph kmh ) Pressure ( in mb ) Visibility ( mi km ) Precip ( " mm )
12:52 am 00:52 Mostly Clear 79 26.1 50 10 36 36 NNW 10 17 29.75 1008 10 16 0.00 0.00
1:52 am 01:52 Clear 76 24.4 51 10.6 42 42 NW 8 13 29.76 1008 10 16 0.00 0.00
2:52 am 02:52 Clear 75 23.9 51 10.6 43 43 W 8 13 29.75 1007 10 16 0.00 0.00
3:52 am 03:52 Clear 72 22.2 52 11.1 50 50 W 6 9 29.75 1007 10 16 0.00 0.00
4:52 am 04:52 Mostly Clear 72 22.2 52 11.1 50 50 WSW 7 11 29.74 1007 10 16 0.00 0.00
5:52 am 05:52 Mostly Sunny 72 22.2 51 10.6 48 48 WNW 7 11 29.76 1008 10 16 0.00 0.00
6:52 am 06:52 Mostly Sunny 73 22.8 51 10.6 46 46 NW 12 19 29.78 1008 10 16 0.00 0.00
7:52 am 07:52 Mostly Sunny 74 23.3 51 10.6 45 45 NW 15 24 29.78 1009 10 16 0.00 0.00
8:52 am 08:52 Mostly Sunny 73 22.8 49 9.4 43 43 NNW 29 46 29.81 1009 10 16 0.00 0.00
9:52 am 09:52 Mostly Cloudy 72 22.2 47 8.3 41 41 NNW 23 37 29.83 1010 10 16 0.00 0.00
10:52 am 10:52 Partly Cloudy 74 23.3 49 9.4 41 41 NW 18 30 29.84 1011 10 16 0.00 0.00
11:52 am 11:52 Mostly Cloudy 73 22.8 49 9.4 43 43 NNW 22 35 29.85 1011 10 16 0.00 0.00
12:52 pm 12:52 Mostly Cloudy 74 23.3 50 10 43 43 WNW 16 26 29.87 1012 10 16 0.00 0.00
1:52 pm 13:52 Mostly Cloudy 75 23.9 49 9.4 40 40 NW 23 37 29.87 1012 10 16 0.00 0.00
2:52 pm 14:52 Partly Cloudy 76 24.4 49 9.4 39 39 NW 24 39 29.87 1012 10 16 0.00 0.00
3:52 pm 15:52 Partly Cloudy 77 25 48 8.9 36 36 NNW 23 37 29.88 1012 10 16 0.00 0.00
4:52 pm 16:52 Mostly Sunny 77 25 45 7.2 32 32 NW 22 35 29.89 1012 10 16 0.00 0.00
5:52 pm 17:52 Sunny 78 25.6 42 5.6 28 28 NW 22 35 29.88 1012 10 16 0.00 0.00
6:52 pm 18:52 Sunny 77 25 40 4.4 26 26 NNW 18 30 29.89 1012 10 16 0.00 0.00
7:52 pm 19:52 Sunny 76 24.4 39 3.9 26 26 NW 15 24 29.90 1013 10 16 0.00 0.00
8:52 pm 20:52 Clear 73 22.8 39 3.9 29 29 NW 10 17 29.92 1013 10 16 0.00 0.00
9:52 pm 21:52 Clear 71 21.7 39 3.9 31 31 NNW 12 19 29.95 1014 10 16 0.00 0.00
10:52 pm 22:52 Clear 70 21.1 39 3.9 32 32 NNW 15 24 29.97 1015 10 16 0.00 0.00
11:52 pm 23:52 Clear 69 20.6 36 2.2 30 30 NW 17 28 29.99 1016 10 16 0.00 0.00

Powered by AerisWeather